RKJ174 FTTJ-HLLB

Flight info

Callsign RKJ174
Flight time 2h 48m
Altitude 43000
Route FL UA403 DINTA/N0492F410 UR778 DEMOX UQ592 ILDOR DCT TONBA/N0490F430 M7 MB MB1E
Aircraft C750/M-BDE3FGHJ1J2LOP1RVWXY/S

Departure

Time 2026-04-17 16:25
Airport N'Djamena International Airport (FTTJ)

Arrival

Time 2026-04-17 19:14
Airport Benina International Airport (HLLB)
Time Latitude Longitude Altitude Speed Heading
2026-04-17 16:19 12.12843 15.02316 972 ft 0 kts 109°
2026-04-17 16:23 12.12834 15.02341 979 ft 8 kts 110°
2026-04-17 16:23 12.12797 15.02400 971 ft 12 kts 137°
2026-04-17 16:23 12.12699 15.02494 971 ft 26 kts 136°
2026-04-17 16:23 12.12618 15.02599 976 ft 13 kts 68°
2026-04-17 16:24 12.12677 15.02648 973 ft 6 kts 353°
2026-04-17 16:24 12.12683 15.02647 973 ft 3 kts 348°
2026-04-17 16:24 12.12781 15.02787 979 ft 65 kts 45°
2026-04-17 16:24 12.13318 15.03349 972 ft 145 kts 47°
2026-04-17 16:25 12.14016 15.04143 1281 ft 164 kts 47°
2026-04-17 16:25 12.14877 15.05032 1566 ft 183 kts 33°
2026-04-17 16:25 12.16111 15.05212 1802 ft 200 kts 343°
2026-04-17 16:25 12.17370 15.04498 2259 ft 209 kts 328°
2026-04-17 16:26 12.18706 15.03842 2763 ft 217 kts 339°
2026-04-17 16:26 12.20216 15.03539 3255 ft 225 kts 355°
2026-04-17 16:26 12.21788 15.03523 3761 ft 228 kts
2026-04-17 16:26 12.23388 15.03517 4259 ft 231 kts 359°
2026-04-17 16:27 12.25004 15.03455 4742 ft 232 kts 357°
2026-04-17 16:27 12.26631 15.03387 5219 ft 235 kts 358°
2026-04-17 16:27 12.28271 15.03329 5690 ft 236 kts 358°
2026-04-17 16:27 12.29921 15.03272 6164 ft 238 kts 358°
2026-04-17 16:28 12.31581 15.03214 6619 ft 239 kts 358°
2026-04-17 16:28 12.33246 15.03154 7079 ft 240 kts 358°
2026-04-17 16:28 12.34912 15.03095 7543 ft 241 kts 359°
2026-04-17 16:28 12.36557 15.03036 8016 ft 237 kts 360°
2026-04-17 16:29 12.38179 15.02979 8490 ft 237 kts
2026-04-17 16:29 12.39833 15.02921 8977 ft 240 kts 360°
2026-04-17 16:29 12.41515 15.02861 9475 ft 242 kts 360°
2026-04-17 16:29 12.43206 15.02801 9928 ft 247 kts
2026-04-17 16:30 12.44974 15.02739 10411 ft 261 kts
2026-04-17 16:30 12.46836 15.02674 10912 ft 275 kts
2026-04-17 16:30 12.48790 15.02604 11418 ft 287 kts 359°
2026-04-17 16:30 12.50835 15.02530 11933 ft 300 kts 360°
2026-04-17 16:31 12.52963 15.02454 12443 ft 312 kts 359°
2026-04-17 16:31 12.55166 15.02376 12959 ft 323 kts 359°
2026-04-17 16:31 12.57446 15.02295 13474 ft 333 kts 359°
2026-04-17 16:31 12.59794 15.02211 13936 ft 342 kts 358°
2026-04-17 16:32 12.62204 15.02125 14401 ft 351 kts 358°
2026-04-17 16:32 12.64671 15.02038 14874 ft 359 kts 358°
2026-04-17 16:32 12.67194 15.01948 15353 ft 366 kts 358°
2026-04-17 16:32 12.69767 15.01856 15837 ft 373 kts 358°
2026-04-17 16:33 12.72385 15.01763 16333 ft 380 kts 357°
2026-04-17 16:33 12.75044 15.01668 16832 ft 386 kts 357°
2026-04-17 16:33 12.77748 15.01571 17339 ft 392 kts 357°
2026-04-17 16:33 12.80497 15.01474 17854 ft 398 kts 357°
2026-04-17 16:34 12.83287 15.01374 18317 ft 404 kts 357°
2026-04-17 16:34 12.86114 15.01274 18763 ft 409 kts 357°
2026-04-17 16:34 12.88977 15.01172 19220 ft 413 kts 357°
2026-04-17 16:34 12.91862 15.01069 19682 ft 417 kts 356°
2026-04-17 16:35 12.94773 15.00965 20151 ft 420 kts 356°
2026-04-17 16:35 12.97708 15.00860 20627 ft 424 kts 356°
2026-04-17 16:35 13.00667 15.00755 21110 ft 427 kts 356°
2026-04-17 16:35 13.03651 15.00648 21602 ft 431 kts 356°
2026-04-17 16:36 13.06654 15.00541 22103 ft 435 kts 356°
2026-04-17 16:36 13.09686 15.00433 22611 ft 438 kts 356°
2026-04-17 16:36 13.12747 15.00323 23129 ft 442 kts 356°
2026-04-17 16:36 13.15836 15.00213 23589 ft 445 kts 355°
2026-04-17 16:37 13.18940 15.00102 24021 ft 448 kts 355°
2026-04-17 16:37 13.22065 14.99990 24464 ft 450 kts 355°
2026-04-17 16:37 13.25206 14.99878 24915 ft 453 kts 355°
2026-04-17 16:37 13.28365 14.99765 25372 ft 456 kts 355°
2026-04-17 16:38 13.31548 14.99651 25838 ft 459 kts 355°
2026-04-17 16:38 13.34751 14.99536 26310 ft 462 kts 355°
2026-04-17 16:38 13.37967 14.99421 26791 ft 464 kts 354°
2026-04-17 16:38 13.41208 14.99305 27287 ft 466 kts 354°
2026-04-17 16:39 13.44452 14.99189 27785 ft 468 kts 354°
2026-04-17 16:39 13.47716 14.99072 28293 ft 470 kts 354°
2026-04-17 16:39 13.50989 14.98955 28807 ft 472 kts 354°
2026-04-17 16:39 13.54278 14.98838 29333 ft 473 kts 354°
2026-04-17 16:40 13.57568 14.98719 29842 ft 474 kts 354°
2026-04-17 16:40 13.60864 14.98601 30293 ft 474 kts 354°
2026-04-17 16:40 13.64163 14.98483 30750 ft 474 kts 353°
2026-04-17 16:40 13.67456 14.98365 31213 ft 474 kts 353°
2026-04-17 16:41 13.70754 14.98247 31681 ft 474 kts 353°
2026-04-17 16:41 13.74004 14.98130 32157 ft 473 kts 353°
2026-04-17 16:41 13.77296 14.98012 32651 ft 473 kts 353°
2026-04-17 16:41 13.80584 14.97894 33147 ft 473 kts 353°
2026-04-17 16:42 13.83866 14.97775 33648 ft 472 kts 353°
2026-04-17 16:42 13.87147 14.97658 34096 ft 471 kts 353°
2026-04-17 16:42 13.90422 14.97540 34546 ft 471 kts 353°
2026-04-17 16:42 13.93691 14.97422 35004 ft 470 kts 353°
2026-04-17 16:43 13.96954 14.97305 35466 ft 469 kts 353°
2026-04-17 16:43 14.00207 14.97188 35942 ft 468 kts 353°
2026-04-17 16:43 14.03457 14.97071 36425 ft 467 kts 353°
2026-04-17 16:43 14.06695 14.96955 36920 ft 465 kts 353°
2026-04-17 16:44 14.09926 14.96838 37428 ft 464 kts 352°
2026-04-17 16:44 14.13153 14.96722 37946 ft 463 kts 352°
2026-04-17 16:44 14.16362 14.96606 38449 ft 461 kts 352°
2026-04-17 16:44 14.19559 14.96491 38893 ft 459 kts 352°
2026-04-17 16:45 14.22751 14.96376 39349 ft 457 kts 352°
2026-04-17 16:45 14.25924 14.96262 39818 ft 455 kts 352°
2026-04-17 16:45 14.29082 14.96148 40295 ft 453 kts 352°
2026-04-17 16:45 14.32221 14.96035 40782 ft 450 kts 352°
2026-04-17 16:46 14.35348 14.95922 41278 ft 447 kts 352°
2026-04-17 16:46 14.38443 14.95811 41784 ft 444 kts 351°
2026-04-17 16:46 14.41517 14.95700 42303 ft 439 kts 351°
2026-04-17 16:46 14.44562 14.95590 42739 ft 438 kts 351°
2026-04-17 16:47 14.50781 14.95356 42698 ft 455 kts 351°
2026-04-17 16:47 14.57212 14.95129 42705 ft 470 kts 351°
2026-04-17 16:48 14.63850 14.94887 42708 ft 484 kts 351°
2026-04-17 16:48 14.70676 14.94641 42705 ft 498 kts 352°
2026-04-17 16:49 14.77678 14.94387 42715 ft 509 kts 352°
2026-04-17 16:49 14.84779 14.94135 42710 ft 511 kts 351°
2026-04-17 16:50 14.91902 14.93875 42714 ft 512 kts 351°
2026-04-17 16:50 14.98969 14.93620 42716 ft 512 kts 351°
2026-04-17 16:51 15.06088 14.93361 42715 ft 511 kts 351°
2026-04-17 16:51 15.13201 14.93102 42723 ft 512 kts 351°
2026-04-17 16:52 15.20317 14.92843 42722 ft 511 kts 351°
2026-04-17 16:52 15.27422 14.92585 42724 ft 512 kts 351°
2026-04-17 16:53 15.34544 14.92326 42730 ft 512 kts 351°
2026-04-17 16:53 15.41657 14.92066 42734 ft 512 kts 351°
2026-04-17 16:54 15.48771 14.91807 42743 ft 512 kts 351°
2026-04-17 16:54 15.55895 14.91547 42729 ft 512 kts 351°
2026-04-17 16:55 15.63023 14.91286 42737 ft 513 kts 351°
2026-04-17 16:55 15.70146 14.91027 42737 ft 512 kts 351°
2026-04-17 16:56 15.77270 14.90766 42737 ft 512 kts 351°
2026-04-17 16:56 15.83188 14.90550 42757 ft 512 kts 350°
2026-04-17 16:57 15.90328 14.90288 42743 ft 513 kts 351°
2026-04-17 16:57 15.98620 14.89984 42748 ft 513 kts 351°
2026-04-17 16:58 16.04595 14.89765 42746 ft 513 kts 351°
2026-04-17 16:58 16.11733 14.89504 42736 ft 513 kts 351°
2026-04-17 16:59 16.18870 14.89241 42744 ft 514 kts 350°
2026-04-17 16:59 16.25973 14.88979 42749 ft 514 kts 350°
2026-04-17 17:00 16.33128 14.88718 42747 ft 515 kts 350°
2026-04-17 17:00 16.40289 14.88453 42751 ft 515 kts 350°
2026-04-17 17:01 16.47450 14.88190 42752 ft 515 kts 350°
2026-04-17 17:01 16.54613 14.87925 42756 ft 516 kts 350°
2026-04-17 17:02 16.61788 14.87662 42757 ft 516 kts 350°
2026-04-17 17:02 16.68955 14.87397 42759 ft 515 kts 350°
2026-04-17 17:03 16.76124 14.87132 42759 ft 516 kts 350°
2026-04-17 17:03 16.83297 14.86867 42761 ft 516 kts 350°
2026-04-17 17:04 16.90482 14.86600 42764 ft 517 kts 350°
2026-04-17 17:04 16.97664 14.86336 42769 ft 517 kts 350°
2026-04-17 17:05 17.04852 14.86067 42773 ft 517 kts 350°
2026-04-17 17:05 17.11990 14.85802 42778 ft 517 kts 350°
2026-04-17 17:06 17.19173 14.85533 42803 ft 517 kts 350°
2026-04-17 17:06 17.26384 14.85263 42777 ft 518 kts 350°
2026-04-17 17:07 17.33590 14.84996 42782 ft 518 kts 350°
2026-04-17 17:07 17.40800 14.84725 42783 ft 518 kts 350°
2026-04-17 17:08 17.48032 14.84633 42771 ft 526 kts 357°
2026-04-17 17:08 17.55277 14.86361 42782 ft 545 kts 15°
2026-04-17 17:09 17.61982 14.90252 42780 ft 559 kts 33°
2026-04-17 17:09 17.67569 14.95974 42790 ft 566 kts 47°
2026-04-17 17:10 17.72403 15.02510 42793 ft 567 kts 50°
2026-04-17 17:10 17.77603 15.08681 42790 ft 564 kts 43°
2026-04-17 17:11 17.82786 15.14816 42799 ft 566 kts 48°
2026-04-17 17:11 17.87920 15.21125 42803 ft 567 kts 45°
2026-04-17 17:12 17.93165 15.27326 42798 ft 572 kts 47°
2026-04-17 17:12 17.98390 15.33734 42802 ft 582 kts 46°
2026-04-17 17:13 18.03728 15.40098 42800 ft 587 kts 46°
2026-04-17 17:13 18.09073 15.46627 42801 ft 591 kts 46°
2026-04-17 17:14 18.14486 15.53133 42808 ft 591 kts 46°
2026-04-17 17:15 18.22578 15.62969 42786 ft 593 kts 46°
2026-04-17 17:15 18.27984 15.69512 42776 ft 591 kts 46°
2026-04-17 17:16 18.33361 15.76058 42791 ft 592 kts 46°
2026-04-17 17:16 18.38758 15.82610 42785 ft 592 kts 46°
2026-04-17 17:17 18.44142 15.89172 42806 ft 592 kts 46°
2026-04-17 17:17 18.49548 15.95753 42787 ft 595 kts 46°
2026-04-17 17:18 18.54953 16.02352 42783 ft 593 kts 46°
2026-04-17 17:18 18.60349 16.08935 42784 ft 593 kts 46°
2026-04-17 17:19 18.65743 16.15535 42786 ft 593 kts 46°
2026-04-17 17:19 18.71092 16.22077 42782 ft 594 kts 46°
2026-04-17 17:20 18.76489 16.28691 42782 ft 596 kts 46°
2026-04-17 17:20 18.81895 16.35320 42777 ft 596 kts 46°
2026-04-17 17:21 18.87294 16.41947 42778 ft 595 kts 46°
2026-04-17 17:21 18.92686 16.48576 42782 ft 595 kts 46°
2026-04-17 17:22 18.98079 16.55209 42777 ft 595 kts 46°
2026-04-17 17:22 19.03466 16.61846 42802 ft 595 kts 46°
2026-04-17 17:23 19.08868 16.68506 42780 ft 597 kts 46°
2026-04-17 17:23 19.14266 16.75168 42777 ft 595 kts 46°
2026-04-17 17:24 19.19652 16.81823 42775 ft 596 kts 46°
2026-04-17 17:24 19.25041 16.88492 42775 ft 596 kts 46°
2026-04-17 17:25 19.30421 16.95153 42775 ft 595 kts 46°
2026-04-17 17:25 19.35810 17.01836 42781 ft 598 kts 46°
2026-04-17 17:26 19.41209 17.08536 42780 ft 597 kts 46°
2026-04-17 17:26 19.46565 17.15193 42779 ft 598 kts 46°
2026-04-17 17:27 19.51956 17.21898 42785 ft 598 kts 46°
2026-04-17 17:27 19.57339 17.28602 42785 ft 598 kts 46°
2026-04-17 17:28 19.62735 17.35330 42802 ft 599 kts 46°
2026-04-17 17:28 19.68134 17.42069 42801 ft 599 kts 46°
2026-04-17 17:29 19.73524 17.48806 42814 ft 599 kts 46°
2026-04-17 17:29 19.78911 17.55545 42809 ft 599 kts 46°
2026-04-17 17:30 19.84304 17.62299 42812 ft 599 kts 46°
2026-04-17 17:30 19.89678 17.69037 42807 ft 599 kts 46°
2026-04-17 17:31 19.95067 17.75802 42812 ft 600 kts 46°
2026-04-17 17:31 20.00447 17.82563 42816 ft 599 kts 46°
2026-04-17 17:32 20.05827 17.89333 42819 ft 599 kts 46°
2026-04-17 17:32 20.11168 17.96063 42821 ft 599 kts 46°
2026-04-17 17:33 20.16577 18.02881 42849 ft 599 kts 46°
2026-04-17 17:33 20.21946 18.09665 42849 ft 598 kts 45°
2026-04-17 17:34 20.27263 18.16385 42877 ft 598 kts 45°
2026-04-17 17:34 20.32626 18.23176 42878 ft 598 kts 46°
2026-04-17 17:35 20.37987 18.29967 42887 ft 598 kts 46°
2026-04-17 17:35 20.43339 18.36758 42880 ft 598 kts 45°
2026-04-17 17:36 20.48685 18.43552 42861 ft 597 kts 46°
2026-04-17 17:36 20.54015 18.50328 42897 ft 596 kts 46°
2026-04-17 17:37 20.59347 18.57120 42906 ft 596 kts 46°
2026-04-17 17:37 20.64674 18.63908 42907 ft 597 kts 46°
2026-04-17 17:38 20.70001 18.70710 42913 ft 596 kts 46°
2026-04-17 17:38 20.75326 18.77512 42912 ft 599 kts 46°
2026-04-17 17:39 20.80654 18.84332 42906 ft 598 kts 46°
2026-04-17 17:39 20.85981 18.91155 42900 ft 596 kts 46°
2026-04-17 17:40 20.91263 18.97930 42912 ft 597 kts 46°
2026-04-17 17:40 20.96589 19.04769 42891 ft 598 kts 46°
2026-04-17 17:41 21.01913 19.11616 42916 ft 598 kts 46°
2026-04-17 17:41 21.07250 19.18482 42896 ft 601 kts 46°
2026-04-17 17:42 21.12594 19.25376 42888 ft 601 kts 46°
2026-04-17 17:42 21.17941 19.32270 42886 ft 603 kts 46°
2026-04-17 17:43 21.23289 19.39187 42894 ft 602 kts 46°
2026-04-17 17:43 21.28628 19.46088 42930 ft 602 kts 46°
2026-04-17 17:44 21.33995 19.53043 42885 ft 605 kts 46°
2026-04-17 17:44 21.39372 19.60017 42887 ft 607 kts 46°
2026-04-17 17:45 21.44742 19.66990 42888 ft 607 kts 46°
2026-04-17 17:45 21.49208 19.72798 42886 ft 606 kts 46°
2026-04-17 17:46 21.55191 19.79029 42885 ft 592 kts 30°
2026-04-17 17:46 21.62210 19.83298 42891 ft 569 kts 13°
2026-04-17 17:46 21.65934 19.84609 42881 ft 558 kts
2026-04-17 17:47 21.69697 19.85349 42892 ft 544 kts 356°
2026-04-17 17:47 21.73436 19.85522 42889 ft 530 kts 348°
2026-04-17 17:47 21.77088 19.85254 42907 ft 523 kts 343°
2026-04-17 17:48 21.84322 19.84434 42903 ft 526 kts 345°
2026-04-17 17:48 21.91731 19.84367 42900 ft 534 kts 350°
2026-04-17 17:49 21.99107 19.84156 42895 ft 527 kts 346°
2026-04-17 17:49 22.06424 19.83890 42895 ft 532 kts 349°
2026-04-17 17:50 22.13867 19.83727 42897 ft 529 kts 347°
2026-04-17 17:50 22.21242 19.83451 42904 ft 533 kts 348°
2026-04-17 17:51 22.28654 19.83277 42910 ft 532 kts 347°
2026-04-17 17:51 22.35992 19.83022 42912 ft 532 kts 348°
2026-04-17 17:52 22.43388 19.82825 42915 ft 532 kts 347°
2026-04-17 17:52 22.50798 19.82586 42903 ft 534 kts 347°
2026-04-17 17:53 22.58225 19.82374 42910 ft 534 kts 348°
2026-04-17 17:53 22.65638 19.82144 42911 ft 533 kts 347°
2026-04-17 17:54 22.73070 19.81924 42915 ft 534 kts 348°
2026-04-17 17:54 22.80493 19.81699 42921 ft 534 kts 348°
2026-04-17 17:55 22.87914 19.81475 42917 ft 534 kts 348°
2026-04-17 17:55 22.95355 19.81251 42912 ft 534 kts 348°
2026-04-17 17:56 23.02783 19.81025 42912 ft 534 kts 348°
2026-04-17 17:56 23.10205 19.80801 42926 ft 534 kts 348°
2026-04-17 17:57 23.17617 19.80576 42922 ft 536 kts 349°
2026-04-17 17:57 23.25068 19.80351 42923 ft 536 kts 349°
2026-04-17 17:58 23.32525 19.80123 42924 ft 536 kts 349°
2026-04-17 17:58 23.39969 19.79898 42937 ft 535 kts 349°
2026-04-17 17:59 23.47419 19.79670 42930 ft 534 kts 349°
2026-04-17 17:59 23.54857 19.79444 42928 ft 535 kts 349°
2026-04-17 18:00 23.62305 19.79216 42929 ft 535 kts 349°
2026-04-17 18:00 23.69755 19.78989 42941 ft 535 kts 349°
2026-04-17 18:01 23.77209 19.78761 42936 ft 535 kts 349°
2026-04-17 18:01 23.84656 19.78533 42942 ft 535 kts 349°
2026-04-17 18:02 23.92096 19.78305 42945 ft 535 kts 349°
2026-04-17 18:02 23.99541 19.78077 42944 ft 535 kts 349°
2026-04-17 18:03 24.07003 19.77846 42934 ft 536 kts 349°
2026-04-17 18:03 24.14425 19.77620 42939 ft 537 kts 349°
2026-04-17 18:04 24.21904 19.77388 42942 ft 538 kts 349°
2026-04-17 18:04 24.29381 19.77160 42943 ft 537 kts 349°
2026-04-17 18:05 24.36867 19.76926 42942 ft 538 kts 349°
2026-04-17 18:05 24.44359 19.76698 42923 ft 538 kts 349°
2026-04-17 18:06 24.51851 19.76463 42923 ft 539 kts 349°
2026-04-17 18:06 24.59348 19.76233 42923 ft 539 kts 349°
2026-04-17 18:07 24.66863 19.75998 42926 ft 540 kts 349°
2026-04-17 18:07 24.74385 19.75766 42933 ft 541 kts 349°
2026-04-17 18:08 24.81902 19.75532 42933 ft 541 kts 349°
2026-04-17 18:08 24.89431 19.75298 42940 ft 541 kts 349°
2026-04-17 18:09 24.96962 19.75063 42931 ft 541 kts 349°
2026-04-17 18:09 25.04486 19.74828 42932 ft 541 kts 349°
2026-04-17 18:10 25.12018 19.74594 42935 ft 541 kts 349°
2026-04-17 18:10 25.19548 19.74358 42937 ft 541 kts 349°
2026-04-17 18:11 25.27064 19.74123 42924 ft 540 kts 349°
2026-04-17 18:11 25.34588 19.73886 42925 ft 541 kts 349°
2026-04-17 18:12 25.42108 19.73651 42922 ft 541 kts 349°
2026-04-17 18:12 25.49575 19.73416 42923 ft 541 kts 349°
2026-04-17 18:13 25.57076 19.73183 42930 ft 538 kts 349°
2026-04-17 18:13 25.64569 19.72944 42932 ft 539 kts 349°
2026-04-17 18:14 25.72058 19.72711 42930 ft 539 kts 349°
2026-04-17 18:14 25.79559 19.72473 42966 ft 538 kts 349°
2026-04-17 18:15 25.87012 19.72240 42932 ft 536 kts 349°
2026-04-17 18:15 25.94476 19.72001 42932 ft 536 kts 349°
2026-04-17 18:16 26.01929 19.71768 42933 ft 536 kts 349°
2026-04-17 18:16 26.09392 19.71530 42957 ft 536 kts 349°
2026-04-17 18:17 26.16822 19.71295 42935 ft 534 kts 349°
2026-04-17 18:17 26.27978 19.70941 42934 ft 535 kts 349°
2026-04-17 18:18 26.35420 19.70703 42941 ft 535 kts 349°
2026-04-17 18:18 26.42860 19.70467 42943 ft 535 kts 349°
2026-04-17 18:19 26.50299 19.70229 42944 ft 535 kts 349°
2026-04-17 18:19 26.57739 19.69992 42938 ft 535 kts 349°
2026-04-17 18:20 26.65125 19.69755 42942 ft 535 kts 349°
2026-04-17 18:20 26.72540 19.69519 42941 ft 532 kts 349°
2026-04-17 18:21 26.79953 19.69279 42941 ft 533 kts 349°
2026-04-17 18:21 26.87364 19.69043 42942 ft 533 kts 349°
2026-04-17 18:22 26.94781 19.68803 42943 ft 533 kts 349°
2026-04-17 18:22 27.02192 19.68566 42942 ft 532 kts 349°
2026-04-17 18:23 27.09588 19.68326 42934 ft 532 kts 349°
2026-04-17 18:23 27.17003 19.68087 42929 ft 533 kts 349°
2026-04-17 18:24 27.24412 19.67847 42964 ft 533 kts 349°
2026-04-17 18:24 27.31819 19.67609 42937 ft 532 kts 349°
2026-04-17 18:25 27.39221 19.67368 42940 ft 532 kts 349°
2026-04-17 18:25 27.46635 19.67128 42936 ft 532 kts 349°
2026-04-17 18:26 27.53991 19.66888 42949 ft 534 kts 350°
2026-04-17 18:26 27.61414 19.66646 42942 ft 533 kts 350°
2026-04-17 18:27 27.68834 19.66403 42936 ft 533 kts 350°
2026-04-17 18:27 27.76248 19.66161 42944 ft 533 kts 350°
2026-04-17 18:28 27.83666 19.65917 42938 ft 534 kts 350°
2026-04-17 18:28 27.91101 19.65674 42940 ft 534 kts 350°
2026-04-17 18:29 27.98531 19.65430 42943 ft 534 kts 350°
2026-04-17 18:29 28.05960 19.65185 42943 ft 534 kts 350°
2026-04-17 18:30 28.13405 19.64939 42946 ft 535 kts 351°
2026-04-17 18:30 28.20850 19.64695 42948 ft 535 kts 351°
2026-04-17 18:31 28.28310 19.64448 42950 ft 535 kts 351°
2026-04-17 18:31 28.35703 19.64204 42952 ft 535 kts 351°
2026-04-17 18:32 28.43155 19.63956 42951 ft 535 kts 351°
2026-04-17 18:32 28.50608 19.63710 42955 ft 536 kts 351°
2026-04-17 18:33 28.58057 19.63424 42958 ft 534 kts 349°
2026-04-17 18:33 28.65392 19.62517 42982 ft 529 kts 346°
2026-04-17 18:34 28.72777 19.61923 42957 ft 534 kts 351°
2026-04-17 18:34 28.78921 19.61461 42952 ft 531 kts 347°
2026-04-17 18:35 28.86295 19.60736 42954 ft 533 kts 349°
2026-04-17 18:35 28.93691 19.60191 42985 ft 532 kts 348°
2026-04-17 18:36 29.01049 19.59505 42963 ft 531 kts 349°
2026-04-17 18:36 29.08432 19.58920 42970 ft 531 kts 349°
2026-04-17 18:37 29.15793 19.58265 42968 ft 531 kts 348°
2026-04-17 18:37 29.23169 19.57653 42969 ft 531 kts 349°
2026-04-17 18:38 29.30481 19.57019 42962 ft 531 kts 348°
2026-04-17 18:38 29.37866 19.56392 42965 ft 531 kts 349°
2026-04-17 18:39 29.45239 19.55759 42966 ft 531 kts 349°
2026-04-17 18:39 29.52606 19.55127 42967 ft 530 kts 349°
2026-04-17 18:40 29.59970 19.54495 42971 ft 530 kts 349°
2026-04-17 18:40 29.67328 19.53861 42972 ft 530 kts 349°
2026-04-17 18:41 29.74692 19.53227 42972 ft 530 kts 349°
2026-04-17 18:41 29.82045 19.52592 42970 ft 529 kts 349°
2026-04-17 18:42 29.89389 19.51958 42973 ft 529 kts 349°
2026-04-17 18:42 29.96740 19.51322 42975 ft 530 kts 349°
2026-04-17 18:43 30.04044 19.50689 42998 ft 530 kts 349°
2026-04-17 18:43 30.11383 19.50052 42965 ft 529 kts 349°
2026-04-17 18:44 30.18731 19.49412 42966 ft 529 kts 349°
2026-04-17 18:44 30.26070 19.48774 42969 ft 529 kts 349°
2026-04-17 18:45 30.33414 19.48134 42969 ft 529 kts 349°
2026-04-17 18:45 30.40748 19.47494 42969 ft 529 kts 349°
2026-04-17 18:46 30.48084 19.46852 42966 ft 528 kts 349°
2026-04-17 18:46 30.55419 19.46209 42966 ft 529 kts 349°
2026-04-17 18:47 30.62751 19.45567 42967 ft 527 kts 349°
2026-04-17 18:47 30.70080 19.44923 42968 ft 528 kts 349°
2026-04-17 18:48 30.77404 19.44278 42967 ft 528 kts 349°
2026-04-17 18:48 30.84723 19.43633 42964 ft 528 kts 349°
2026-04-17 18:49 30.92053 19.42987 42967 ft 528 kts 349°
2026-04-17 18:49 30.99337 19.42343 42968 ft 528 kts 349°
2026-04-17 18:50 31.06664 19.41694 42968 ft 528 kts 349°
2026-04-17 18:50 31.10278 19.41379 42664 ft 510 kts 349°
2026-04-17 18:50 31.13716 19.41086 42670 ft 483 kts 348°
2026-04-17 18:51 31.16991 19.40794 42630 ft 462 kts 348°
2026-04-17 18:51 31.20153 19.40501 42594 ft 453 kts 348°
2026-04-17 18:51 31.26502 19.39923 41933 ft 466 kts 348°
2026-04-17 18:52 31.29759 19.39638 40911 ft 470 kts 348°
2026-04-17 18:52 31.32970 19.39367 40646 ft 454 kts 348°
2026-04-17 18:52 31.39284 19.38781 39617 ft 468 kts 348°
2026-04-17 18:53 31.42552 19.38484 38506 ft 472 kts 349°
2026-04-17 18:53 31.45783 19.38223 38089 ft 456 kts 349°
2026-04-17 18:53 31.52109 19.37640 37095 ft 467 kts 348°
2026-04-17 18:54 31.55334 19.37344 36336 ft 460 kts 349°
2026-04-17 18:54 31.58479 19.37091 36336 ft 450 kts 349°
2026-04-17 18:54 31.61662 19.36803 35547 ft 464 kts 349°
2026-04-17 18:54 31.64876 19.36495 34718 ft 460 kts 349°
2026-04-17 18:55 31.71173 19.35941 33950 ft 466 kts 349°
2026-04-17 18:55 31.74423 19.35647 33465 ft 454 kts 351°
2026-04-17 18:55 31.77542 19.35368 33474 ft 459 kts 351°
2026-04-17 18:56 31.83927 19.34791 33497 ft 461 kts 351°
2026-04-17 18:56 31.90324 19.34216 33466 ft 462 kts 351°
2026-04-17 18:57 31.93555 19.33922 32880 ft 463 kts 352°
2026-04-17 18:57 31.96754 19.33635 32517 ft 462 kts 352°
2026-04-17 18:57 31.99962 19.33345 32016 ft 461 kts 353°
2026-04-17 18:57 32.03164 19.33055 31529 ft 462 kts 354°
2026-04-17 18:58 32.06351 19.32767 31025 ft 458 kts 355°
2026-04-17 18:58 32.09537 19.32479 30340 ft 461 kts 356°
2026-04-17 18:58 32.12697 19.32204 29575 ft 448 kts 358°
2026-04-17 18:58 32.15753 19.32662 29015 ft 443 kts 18°
2026-04-17 18:59 32.18492 19.34247 28442 ft 436 kts 32°
2026-04-17 18:59 32.20810 19.36528 27638 ft 433 kts 46°
2026-04-17 18:59 32.22585 19.39375 26863 ft 430 kts 58°
2026-04-17 18:59 32.23732 19.42640 25706 ft 429 kts 73°
2026-04-17 19:00 32.24165 19.46018 24583 ft 395 kts 86°
2026-04-17 19:00 32.24018 19.49107 23191 ft 366 kts 94°
2026-04-17 19:00 32.23754 19.52020 21626 ft 341 kts 93°
2026-04-17 19:00 32.23546 19.54704 20124 ft 319 kts 92°
2026-04-17 19:01 32.23376 19.57247 18708 ft 309 kts 91°
2026-04-17 19:01 32.23196 19.59693 17179 ft 290 kts 92°
2026-04-17 19:01 32.23012 19.62031 15480 ft 281 kts 92°
2026-04-17 19:01 32.22838 19.64294 13894 ft 273 kts 91°
2026-04-17 19:02 32.22674 19.66460 12176 ft 258 kts 91°
2026-04-17 19:02 32.22516 19.68533 10532 ft 249 kts 90°
2026-04-17 19:02 32.22363 19.70540 9317 ft 238 kts 90°
2026-04-17 19:02 32.22216 19.72426 9187 ft 219 kts 90°
2026-04-17 19:03 32.22080 19.74243 9178 ft 221 kts 89°
2026-04-17 19:03 32.21943 19.76058 9165 ft 222 kts 90°
2026-04-17 19:03 32.21803 19.77876 8962 ft 222 kts 90°
2026-04-17 19:03 32.21662 19.79694 8681 ft 221 kts 90°
2026-04-17 19:04 32.21523 19.81449 8400 ft 208 kts 88°
2026-04-17 19:04 32.21393 19.83110 8132 ft 199 kts 88°
2026-04-17 19:04 32.21271 19.84717 7871 ft 195 kts 88°
2026-04-17 19:04 32.21150 19.86304 7621 ft 194 kts 88°
2026-04-17 19:05 32.21027 19.87895 7370 ft 194 kts 88°
2026-04-17 19:05 32.20902 19.89481 7117 ft 193 kts 88°
2026-04-17 19:05 32.20779 19.91062 6863 ft 194 kts 88°
2026-04-17 19:05 32.20656 19.92619 6604 ft 185 kts 88°
2026-04-17 19:06 32.20539 19.94069 6362 ft 175 kts 87°
2026-04-17 19:06 32.20430 19.95474 6127 ft 170 kts 87°
2026-04-17 19:06 32.20323 19.96876 5903 ft 169 kts 87°
2026-04-17 19:06 32.20216 19.98230 5687 ft 167 kts 87°
2026-04-17 19:07 32.20109 19.99596 5465 ft 167 kts 87°
2026-04-17 19:07 32.20002 20.00957 5245 ft 166 kts 87°
2026-04-17 19:07 32.19895 20.02307 5026 ft 164 kts 87°
2026-04-17 19:07 32.19789 20.03643 4805 ft 163 kts 87°
2026-04-17 19:08 32.19684 20.04974 4592 ft 163 kts 87°
2026-04-17 19:08 32.19579 20.06302 4379 ft 162 kts 88°
2026-04-17 19:08 32.19474 20.07624 4163 ft 162 kts 88°
2026-04-17 19:08 32.19369 20.08922 3945 ft 156 kts 88°
2026-04-17 19:09 32.19268 20.10213 3746 ft 159 kts 88°
2026-04-17 19:09 32.19165 20.11512 3546 ft 159 kts 88°
2026-04-17 19:09 32.19061 20.12810 3347 ft 158 kts 89°
2026-04-17 19:09 32.18959 20.14020 3167 ft 140 kts 86°
2026-04-17 19:10 32.18870 20.15150 2977 ft 138 kts 86°
2026-04-17 19:10 32.18782 20.16280 2808 ft 138 kts 86°
2026-04-17 19:10 32.18692 20.17402 2628 ft 136 kts 88°
2026-04-17 19:10 32.18604 20.18515 2455 ft 136 kts 87°
2026-04-17 19:11 32.18514 20.19627 2289 ft 137 kts 88°
2026-04-17 19:11 32.18277 20.20736 2089 ft 145 kts 109°
2026-04-17 19:11 32.17657 20.21686 1898 ft 149 kts 135°
2026-04-17 19:11 32.16773 20.22334 1695 ft 151 kts 149°
2026-04-17 19:12 32.15841 20.22905 1378 ft 147 kts 153°
2026-04-17 19:12 32.14941 20.23421 1187 ft 141 kts 153°
2026-04-17 19:12 32.14054 20.23958 1074 ft 146 kts 152°
2026-04-17 19:12 32.13128 20.24513 943 ft 152 kts 153°
2026-04-17 19:13 32.12195 20.25099 690 ft 152 kts 150°
2026-04-17 19:13 32.11289 20.25709 513 ft 151 kts 149°
2026-04-17 19:13 32.10390 20.26294 416 ft 137 kts 151°
2026-04-17 19:13 32.09714 20.26755 415 ft 85 kts 151°
2026-04-17 19:14 32.09344 20.26997 412 ft 43 kts 149°
2026-04-17 19:14 32.09088 20.27177 411 ft 39 kts 151°
2026-04-17 19:14 32.08922 20.27238 413 ft 13 kts 188°
2026-04-17 19:14 32.08847 20.27199 411 ft 12 kts 220°
2026-04-17 19:15 32.08804 20.27119 411 ft 12 kts 242°
2026-04-17 19:15 32.08775 20.27061 411 ft 7 kts 238°
2026-04-17 19:15 32.08751 20.26978 411 ft 14 kts 265°
2026-04-17 19:15 32.08742 20.26837 411 ft 15 kts 265°
2026-04-17 19:16 32.08704 20.26766 411 ft 7 kts 208°
2026-04-17 19:16 32.08674 20.26746 410 ft 2 kts 207°
2026-04-17 19:16 32.08672 20.26745 407 ft 0 kts 208°